星链-31881 (STARLINK-31881 )

导读

STARLINK-31881是由美国于2024年5月6日发射的Starlink星座卫星,Starlink是SpaceX打造的低轨卫星互联网项目,该卫星旨在为全球偏远地区、移动通信难以覆盖区域提供高速互联网接入服务,属于Starlink批量部署低轨卫星进程中的一员,进一步扩充了Starlink星座的在轨卫星规模,助力星座全球覆盖能力的完善。

基本信息
目录编号:
59659
目录名称:
STARLINK-31881
国际标识:
2024-084F
轨道中心:
EARTH
卫星名称:
星链-31881
卫星全名:
星链-31881 (STARLINK-31881 )
卫星状态:
在轨 (已飞行773 天)
发射日期:
2024-05-06 UTC
国别 :
美国 (US)
星等 :
--
轨道信息
数据来源 国际轨道数据 AOE轨道数据
星历时间 2026-06-17T02:58:58+0800
1天前
查看轨道信息
2026-06-17T07:00:00+0800
1天前
查看轨道信息
半长轴 6861.199km 6861.18km
偏心率 0.0001106 0.000121
轨道倾角 43.001° 43.000°
近地点辐角 273.182° 254.989°
升交点赤经 198.299° 197.357°
平近点角 86.890° 306.634°
近地点 482.303km 482.212km
远地点 483.821km 483.874km
周期 94.267分钟 94.267分钟
每日圈数 15.275758 15.275823
详细信息
固有亮度:
5
最大亮度:
1.5
卫星平台:
Starlink v2.0 mini
覆盖范围:
全球
运营商:
太空探索技术公司
运营商所在国:
美国
制造商(研发单位):
太空探索技术公司
制造商所在国:
美国
使用方式:
暂无
卫星简介
星链(Starlink)计划是由太空探索技术公司(SpaceX)提出的一个巨型低轨卫星互联网星座项目,计划在2019年至2024年间在太空搭建由约1.2万颗卫星组成的“星链”网络,其中1584颗将部署在地球上空550千米处的近地轨道,并从2020年开始工作。该卫星仍在工作。
2D轨道图
3D轨道图
轨道高度分析图
轨道倾角分析图
轨道综合分析图
查看轨道综合分析图